Year,Month,Day,Hour,Minute,Value (Times are PST for windspeed in km/hr)
2017,05,24,00,00,3.00
2017,05,24,00,01,2.60
2017,05,24,00,02,3.70
2017,05,24,00,03,2.80
2017,05,24,00,04,2.80
2017,05,24,00,05,2.80
2017,05,24,00,06,5.60
2017,05,24,00,07,5.90
2017,05,24,00,08,9.90
2017,05,24,00,09,4.00
2017,05,24,00,10,5.80
2017,05,24,00,11,4.00
2017,05,24,00,12,3.70
2017,05,24,00,13,5.90
2017,05,24,00,14,4.20
2017,05,24,00,15,4.00
2017,05,24,00,16,2.70
2017,05,24,00,17,4.00
2017,05,24,00,18,4.30
2017,05,24,00,19,5.40
2017,05,24,00,20,4.00
2017,05,24,00,21,3.00
2017,05,24,00,22,2.50
2017,05,24,00,23,2.50
2017,05,24,00,24,7.30
2017,05,24,00,25,5.70
2017,05,24,00,26,6.20
2017,05,24,00,27,4.90
2017,05,24,00,28,8.30
2017,05,24,00,29,6.20
2017,05,24,00,30,3.00
2017,05,24,00,31,4.80
2017,05,24,00,32,3.40
2017,05,24,00,33,2.80
2017,05,24,00,34,5.80
2017,05,24,00,35,6.60
2017,05,24,00,36,8.20
2017,05,24,00,37,3.90
2017,05,24,00,38,5.20
2017,05,24,00,39,7.80
2017,05,24,00,40,5.20
2017,05,24,00,41,10.80
2017,05,24,00,42,12.00
2017,05,24,00,43,8.70
2017,05,24,00,44,8.60
2017,05,24,00,45,8.90
2017,05,24,00,46,7.00
2017,05,24,00,47,11.80
2017,05,24,00,48,8.20
2017,05,24,00,49,6.60
2017,05,24,00,50,7.90
2017,05,24,00,51,7.50
2017,05,24,00,52,4.30
2017,05,24,00,53,5.30
2017,05,24,00,54,8.00
2017,05,24,00,55,8.30
2017,05,24,00,56,8.80
2017,05,24,00,57,6.90
2017,05,24,00,58,7.10
2017,05,24,00,59,7.00
2017,05,24,01,00,8.10
2017,05,24,01,01,8.40
2017,05,24,01,02,6.30
2017,05,24,01,03,11.60
2017,05,24,01,04,5.90
2017,05,24,01,05,4.40
2017,05,24,01,06,5.90
2017,05,24,01,07,5.90
2017,05,24,01,08,6.90
2017,05,24,01,09,5.60
2017,05,24,01,10,4.90
2017,05,24,01,11,4.70
2017,05,24,01,12,2.80
2017,05,24,01,13,2.00
2017,05,24,01,14,3.70
2017,05,24,01,15,5.80
2017,05,24,01,16,4.40
2017,05,24,01,17,3.30
2017,05,24,01,18,4.30
2017,05,24,01,19,3.20
2017,05,24,01,20,4.00
2017,05,24,01,21,2.10
2017,05,24,01,22,4.30
2017,05,24,01,23,1.30
2017,05,24,01,24,1.90
2017,05,24,01,25,1.90
2017,05,24,01,26,1.80
2017,05,24,01,27,2.10
2017,05,24,01,28,4.30
2017,05,24,01,29,2.60
2017,05,24,01,30,5.20
2017,05,24,01,31,4.90
2017,05,24,01,32,3.20
2017,05,24,01,33,1.90
2017,05,24,01,34,6.80
2017,05,24,01,35,4.00
2017,05,24,01,36,3.30
2017,05,24,01,37,4.80
2017,05,24,01,38,2.60
2017,05,24,01,39,0.50
2017,05,24,01,40,4.20
2017,05,24,01,41,3.90
2017,05,24,01,42,6.20
2017,05,24,01,43,4.40
2017,05,24,01,44,5.20
2017,05,24,01,45,5.60
2017,05,24,01,46,4.30
2017,05,24,01,47,5.00
2017,05,24,01,48,5.50
2017,05,24,01,49,2.40
2017,05,24,01,50,5.80
2017,05,24,01,51,4.80
2017,05,24,01,52,3.20
2017,05,24,01,53,2.80
2017,05,24,01,54,6.80
2017,05,24,01,55,5.30
2017,05,24,01,56,2.40
2017,05,24,01,57,5.70
2017,05,24,01,58,4.40
2017,05,24,01,59,2.90
2017,05,24,02,00,3.90
2017,05,24,02,01,3.00
2017,05,24,02,02,3.80
2017,05,24,02,03,5.30
2017,05,24,02,04,3.80
2017,05,24,02,05,5.30
2017,05,24,02,06,4.10
2017,05,24,02,07,5.40
2017,05,24,02,08,4.40
2017,05,24,02,09,3.30
2017,05,24,02,10,0.40
2017,05,24,02,11,5.60
2017,05,24,02,12,3.90
2017,05,24,02,13,1.80
2017,05,24,02,14,3.50
2017,05,24,02,15,3.20
2017,05,24,02,16,2.80
2017,05,24,02,17,4.20
2017,05,24,02,18,3.20
2017,05,24,02,19,2.30
2017,05,24,02,20,1.70
2017,05,24,02,21,0.40
2017,05,24,02,22,2.10
2017,05,24,02,23,1.60
2017,05,24,02,24,5.00
2017,05,24,02,25,3.00
2017,05,24,02,26,3.90
2017,05,24,02,27,3.50
2017,05,24,02,28,3.30
2017,05,24,02,29,2.90
2017,05,24,02,30,2.50
2017,05,24,02,31,1.30
2017,05,24,02,32,3.80
2017,05,24,02,33,3.40
2017,05,24,02,34,4.30
2017,05,24,02,35,2.50
2017,05,24,02,36,0.80
2017,05,24,02,37,0.30
2017,05,24,02,38,0.50
2017,05,24,02,39,1.80
2017,05,24,02,40,2.40
2017,05,24,02,41,2.40
2017,05,24,02,42,0.80
2017,05,24,02,43,2.70
2017,05,24,02,44,1.00
2017,05,24,02,45,2.60
2017,05,24,02,46,2.70
2017,05,24,02,47,2.80
2017,05,24,02,48,2.80
2017,05,24,02,49,3.40
2017,05,24,02,50,2.60
2017,05,24,02,51,4.00
2017,05,24,02,52,2.90
2017,05,24,02,53,5.00
2017,05,24,02,54,4.00
2017,05,24,02,55,3.40
2017,05,24,02,56,3.40
2017,05,24,02,57,3.20
2017,05,24,02,58,4.90
2017,05,24,02,59,3.70
2017,05,24,03,00,1.80
2017,05,24,03,01,1.70
2017,05,24,03,02,3.30
2017,05,24,03,03,4.40
2017,05,24,03,04,2.50
2017,05,24,03,05,1.70
2017,05,24,03,06,3.20
2017,05,24,03,07,4.20
2017,05,24,03,08,1.90
2017,05,24,03,09,2.60
2017,05,24,03,10,2.00
2017,05,24,03,11,1.80
2017,05,24,03,12,3.00
2017,05,24,03,13,2.60
2017,05,24,03,14,6.70
2017,05,24,03,15,5.30
2017,05,24,03,16,3.70
2017,05,24,03,17,3.80
2017,05,24,03,18,3.20
2017,05,24,03,19,4.00
2017,05,24,03,20,3.20
2017,05,24,03,21,3.70
2017,05,24,03,22,4.30
2017,05,24,03,23,2.30
2017,05,24,03,24,0.10
2017,05,24,03,25,0.00
2017,05,24,03,26,1.60
2017,05,24,03,27,1.80
2017,05,24,03,28,0.70
2017,05,24,03,29,2.20
2017,05,24,03,30,0.90
2017,05,24,03,31,0.90
2017,05,24,03,32,0.30
2017,05,24,03,33,0.00
2017,05,24,03,34,0.00
2017,05,24,03,35,0.00
2017,05,24,03,36,0.00
2017,05,24,03,37,3.00
2017,05,24,03,38,0.20
2017,05,24,03,39,0.80
2017,05,24,03,40,1.50
2017,05,24,03,41,0.30
2017,05,24,03,42,0.10
2017,05,24,03,43,0.00
2017,05,24,03,44,1.10
2017,05,24,03,45,2.10
2017,05,24,03,46,1.90
2017,05,24,03,47,2.50
2017,05,24,03,48,2.10
2017,05,24,03,49,1.10
2017,05,24,03,50,0.20
2017,05,24,03,51,1.80
2017,05,24,03,52,0.10
2017,05,24,03,53,0.00
2017,05,24,03,54,0.00
2017,05,24,03,55,0.00
2017,05,24,03,56,0.10
2017,05,24,03,57,0.90
2017,05,24,03,58,0.50
2017,05,24,03,59,0.30
2017,05,24,04,00,0.60
2017,05,24,04,01,0.10
2017,05,24,04,02,2.50
2017,05,24,04,03,1.30
2017,05,24,04,04,0.70
2017,05,24,04,05,0.90
2017,05,24,04,06,0.70
2017,05,24,04,07,1.90
2017,05,24,04,08,0.00
2017,05,24,04,09,1.00
2017,05,24,04,10,0.60
2017,05,24,04,11,0.80
2017,05,24,04,12,0.90
2017,05,24,04,13,0.90
2017,05,24,04,14,0.20
2017,05,24,04,15,0.40
2017,05,24,04,16,0.50
2017,05,24,04,17,1.10
2017,05,24,04,18,1.90
2017,05,24,04,19,1.10
2017,05,24,04,20,3.20
2017,05,24,04,21,1.70
2017,05,24,04,22,2.10
2017,05,24,04,23,0.70
2017,05,24,04,24,0.00
2017,05,24,04,25,0.40
2017,05,24,04,26,0.30
2017,05,24,04,27,0.40
2017,05,24,04,28,0.60
2017,05,24,04,29,0.60
2017,05,24,04,30,0.00
2017,05,24,04,31,0.00
2017,05,24,04,32,0.10
2017,05,24,04,33,0.00
2017,05,24,04,34,0.10
2017,05,24,04,35,1.90
2017,05,24,04,36,0.90
2017,05,24,04,37,0.70
2017,05,24,04,38,0.70
2017,05,24,04,39,0.40
2017,05,24,04,40,1.00
2017,05,24,04,41,1.40
2017,05,24,04,42,0.10
2017,05,24,04,43,0.00
2017,05,24,04,44,0.40
2017,05,24,04,45,2.70
2017,05,24,04,46,1.90
2017,05,24,04,47,0.70
2017,05,24,04,48,0.10
2017,05,24,04,49,0.00
2017,05,24,04,50,0.50
2017,05,24,04,51,0.00
2017,05,24,04,52,0.20
2017,05,24,04,53,1.00
2017,05,24,04,54,0.60
2017,05,24,04,55,0.20
2017,05,24,04,56,1.70
2017,05,24,04,57,2.40
2017,05,24,04,58,2.20
2017,05,24,04,59,3.00
2017,05,24,05,00,2.80
2017,05,24,05,01,1.90
2017,05,24,05,02,2.00
2017,05,24,05,03,2.10
2017,05,24,05,04,0.70
2017,05,24,05,05,0.00
2017,05,24,05,06,0.60
2017,05,24,05,07,1.60
2017,05,24,05,08,0.50
2017,05,24,05,09,1.40
2017,05,24,05,10,1.30
2017,05,24,05,11,1.60
2017,05,24,05,12,1.00
2017,05,24,05,13,0.40
2017,05,24,05,14,0.00
2017,05,24,05,15,1.10
2017,05,24,05,16,2.20
2017,05,24,05,17,2.10
2017,05,24,05,18,1.40
2017,05,24,05,19,0.90
2017,05,24,05,20,1.00
2017,05,24,05,21,2.70
2017,05,24,05,22,1.80
2017,05,24,05,23,2.60
2017,05,24,05,24,2.70
2017,05,24,05,25,1.60
2017,05,24,05,26,0.20
2017,05,24,05,27,0.10
2017,05,24,05,28,0.60
2017,05,24,05,29,1.00
2017,05,24,05,30,1.10
2017,05,24,05,31,2.30
2017,05,24,05,32,3.80
2017,05,24,05,33,2.20
2017,05,24,05,34,1.60
2017,05,24,05,35,1.80
2017,05,24,05,36,1.40
2017,05,24,05,37,0.70
2017,05,24,05,38,0.00
2017,05,24,05,39,0.70
2017,05,24,05,40,0.20
2017,05,24,05,41,1.30
2017,05,24,05,42,0.20
2017,05,24,05,43,3.50
2017,05,24,05,44,4.50
2017,05,24,05,45,4.90
2017,05,24,05,46,4.20
2017,05,24,05,47,4.70
2017,05,24,05,48,4.40
2017,05,24,05,49,3.20
2017,05,24,05,50,5.30
2017,05,24,05,51,4.40
2017,05,24,05,52,1.70
2017,05,24,05,53,1.20
2017,05,24,05,54,0.20
2017,05,24,05,55,2.70
2017,05,24,05,56,3.90
2017,05,24,05,57,4.50
2017,05,24,05,58,3.20
2017,05,24,05,59,0.80
2017,05,24,06,00,0.90
2017,05,24,06,01,1.10
2017,05,24,06,02,0.60
2017,05,24,06,03,2.00
2017,05,24,06,04,0.30
2017,05,24,06,05,0.00
2017,05,24,06,06,1.20
2017,05,24,06,07,1.60
2017,05,24,06,08,1.80
2017,05,24,06,09,0.40
2017,05,24,06,10,1.60
2017,05,24,06,11,1.60
2017,05,24,06,12,0.50
2017,05,24,06,13,0.00
2017,05,24,06,14,0.70
2017,05,24,06,15,1.10
2017,05,24,06,16,1.10
2017,05,24,06,17,0.70
2017,05,24,06,18,2.40
2017,05,24,06,19,1.00
2017,05,24,06,20,0.80
2017,05,24,06,21,0.80
2017,05,24,06,22,0.10
2017,05,24,06,23,1.20
2017,05,24,06,24,0.60
2017,05,24,06,25,0.30
2017,05,24,06,26,0.30
2017,05,24,06,27,0.20
2017,05,24,06,28,0.00
2017,05,24,06,29,0.90
2017,05,24,06,30,3.00
2017,05,24,06,31,3.00
2017,05,24,06,32,2.40
2017,05,24,06,33,0.30
2017,05,24,06,34,0.20
2017,05,24,06,35,0.80
2017,05,24,06,36,0.00
2017,05,24,06,37,0.00
2017,05,24,06,38,0.00
2017,05,24,06,39,0.00
2017,05,24,06,40,0.00
2017,05,24,06,41,0.00
2017,05,24,06,42,0.00
2017,05,24,06,43,0.00
2017,05,24,06,44,0.20
2017,05,24,06,45,1.50
2017,05,24,06,46,3.10
2017,05,24,06,47,1.50
2017,05,24,06,48,1.60
2017,05,24,06,49,1.20
2017,05,24,06,50,1.90
2017,05,24,06,51,1.30
2017,05,24,06,52,1.30
2017,05,24,06,53,1.90
2017,05,24,06,54,1.60
2017,05,24,06,55,2.60
2017,05,24,06,56,1.90
2017,05,24,06,57,1.90
2017,05,24,06,58,1.40
2017,05,24,06,59,1.00
2017,05,24,07,00,4.30
2017,05,24,07,01,4.90
2017,05,24,07,02,1.90
2017,05,24,07,03,1.80
2017,05,24,07,04,2.80
2017,05,24,07,05,2.60
2017,05,24,07,06,3.20
2017,05,24,07,07,1.70
2017,05,24,07,08,2.10
2017,05,24,07,09,2.80
2017,05,24,07,10,3.20
2017,05,24,07,11,0.80
2017,05,24,07,12,1.20
2017,05,24,07,13,1.60
2017,05,24,07,14,0.90
2017,05,24,07,15,1.60
2017,05,24,07,16,1.70
2017,05,24,07,17,4.60
2017,05,24,07,18,2.50
2017,05,24,07,19,1.30
2017,05,24,07,20,0.60
2017,05,24,07,21,2.80
2017,05,24,07,22,3.40
2017,05,24,07,23,2.40
2017,05,24,07,24,2.20
2017,05,24,07,25,0.90
2017,05,24,07,26,1.20
2017,05,24,07,27,3.70
2017,05,24,07,28,2.40
2017,05,24,07,29,2.20
2017,05,24,07,30,2.90
2017,05,24,07,31,1.30
2017,05,24,07,32,1.50
2017,05,24,07,33,1.90
2017,05,24,07,34,1.60
2017,05,24,07,35,0.20
2017,05,24,07,36,2.00
2017,05,24,07,37,4.30
2017,05,24,07,38,2.80
2017,05,24,07,39,0.20
2017,05,24,07,40,3.10
2017,05,24,07,41,1.30
2017,05,24,07,42,0.00
2017,05,24,07,43,2.90
2017,05,24,07,44,2.50
2017,05,24,07,45,1.70
2017,05,24,07,46,1.60
2017,05,24,07,47,0.40
2017,05,24,07,48,1.60
2017,05,24,07,49,0.40
2017,05,24,07,50,1.20
2017,05,24,07,51,0.50
2017,05,24,07,52,0.70
2017,05,24,07,53,0.50
2017,05,24,07,54,0.60
2017,05,24,07,55,0.10
2017,05,24,07,56,0.00
2017,05,24,07,57,0.10
2017,05,24,07,58,0.60
2017,05,24,07,59,0.60
2017,05,24,08,00,1.50
2017,05,24,08,01,0.30
2017,05,24,08,02,2.50
2017,05,24,08,03,1.50
2017,05,24,08,04,4.10
2017,05,24,08,05,6.00
2017,05,24,08,06,3.80
2017,05,24,08,07,3.00
2017,05,24,08,08,3.50
2017,05,24,08,09,3.00
2017,05,24,08,10,2.40
2017,05,24,08,11,1.20
2017,05,24,08,12,0.60
2017,05,24,08,13,1.60
2017,05,24,08,14,2.80
2017,05,24,08,15,1.50
2017,05,24,08,16,1.70
2017,05,24,08,17,2.60
2017,05,24,08,18,2.50
2017,05,24,08,19,1.60
2017,05,24,08,20,1.20
2017,05,24,08,21,3.40
2017,05,24,08,22,3.80
2017,05,24,08,23,2.20
2017,05,24,08,24,2.80
2017,05,24,08,25,1.90
2017,05,24,08,26,6.10
2017,05,24,08,27,3.80
2017,05,24,08,28,2.80
2017,05,24,08,29,0.80
2017,05,24,08,30,0.90
2017,05,24,08,31,2.50
2017,05,24,08,32,6.20
2017,05,24,08,33,2.00
2017,05,24,08,34,1.80
2017,05,24,08,35,0.50
2017,05,24,08,36,1.20
2017,05,24,08,37,2.80
2017,05,24,08,38,7.20
2017,05,24,08,39,4.40
2017,05,24,08,40,5.90
2017,05,24,08,41,1.40
2017,05,24,08,42,2.20
2017,05,24,08,43,2.60
2017,05,24,08,44,3.80
2017,05,24,08,45,5.30
2017,05,24,08,46,3.60
2017,05,24,08,47,2.50
2017,05,24,08,48,4.10
2017,05,24,08,49,4.00
2017,05,24,08,50,4.90
2017,05,24,08,51,6.30
2017,05,24,08,52,4.80
2017,05,24,08,53,4.10
2017,05,24,08,54,2.80
2017,05,24,08,55,6.10
2017,05,24,08,56,8.80
2017,05,24,08,57,7.20
2017,05,24,08,58,5.00
2017,05,24,08,59,11.30
2017,05,24,09,00,6.50
2017,05,24,09,01,8.30
2017,05,24,09,02,7.20
2017,05,24,09,03,6.30
2017,05,24,09,04,5.40
2017,05,24,09,05,5.30
2017,05,24,09,06,2.70
2017,05,24,09,07,1.60
2017,05,24,09,08,3.40
2017,05,24,09,09,6.20
2017,05,24,09,10,4.70
2017,05,24,09,11,5.30
2017,05,24,09,12,6.60
2017,05,24,09,13,4.40
2017,05,24,09,14,4.70
2017,05,24,09,15,6.00
2017,05,24,09,16,7.30
2017,05,24,09,17,5.70
2017,05,24,09,18,6.20
2017,05,24,09,19,3.90
2017,05,24,09,20,4.50
2017,05,24,09,21,2.50
2017,05,24,09,22,4.00
2017,05,24,09,23,4.70
2017,05,24,09,24,3.60
2017,05,24,09,25,2.20
2017,05,24,09,26,3.40
2017,05,24,09,27,4.60
2017,05,24,09,28,3.90
2017,05,24,09,29,9.60
2017,05,24,09,30,8.90
2017,05,24,09,31,1.50
2017,05,24,09,32,4.50
2017,05,24,09,33,7.90
2017,05,24,09,34,6.30
2017,05,24,09,35,4.10
2017,05,24,09,36,8.70
2017,05,24,09,37,9.50
2017,05,24,09,38,8.10
2017,05,24,09,39,5.50
2017,05,24,09,40,3.80
2017,05,24,09,41,6.90
2017,05,24,09,42,9.10
2017,05,24,09,43,7.40
2017,05,24,09,44,7.50
2017,05,24,09,45,12.00
2017,05,24,09,46,15.20
2017,05,24,09,47,14.20
2017,05,24,09,48,8.50
2017,05,24,09,49,15.30
2017,05,24,09,50,18.00
2017,05,24,09,51,15.30
2017,05,24,09,52,21.50
2017,05,24,09,53,17.80
2017,05,24,09,54,14.60
2017,05,24,09,55,13.40
2017,05,24,09,56,15.20
2017,05,24,09,57,15.10
2017,05,24,09,58,15.80
2017,05,24,09,59,14.50
2017,05,24,10,00,13.30
2017,05,24,10,01,14.00
2017,05,24,10,02,12.40
2017,05,24,10,03,10.90
2017,05,24,10,04,7.10
2017,05,24,10,05,12.50
2017,05,24,10,06,12.90
2017,05,24,10,07,15.80
2017,05,24,10,08,14.70
2017,05,24,10,09,12.40
2017,05,24,10,10,14.40
2017,05,24,10,11,16.20
2017,05,24,10,12,12.50
2017,05,24,10,13,10.10
2017,05,24,10,14,6.10
2017,05,24,10,15,10.10
2017,05,24,10,16,8.10
2017,05,24,10,17,8.50
2017,05,24,10,18,11.20
2017,05,24,10,19,13.20
2017,05,24,10,20,14.30
2017,05,24,10,21,14.70
2017,05,24,10,22,15.90
2017,05,24,10,23,13.60
2017,05,24,10,24,12.50
2017,05,24,10,25,8.00
2017,05,24,10,26,12.00
2017,05,24,10,27,15.20
2017,05,24,10,28,11.20
2017,05,24,10,29,8.90
2017,05,24,10,30,14.80
2017,05,24,10,31,23.90
2017,05,24,10,32,18.00
2017,05,24,10,33,14.90
2017,05,24,10,34,19.10
2017,05,24,10,35,20.00
2017,05,24,10,36,14.70
2017,05,24,10,37,14.60
2017,05,24,10,38,15.70
2017,05,24,10,39,13.90
2017,05,24,10,40,14.50
2017,05,24,10,41,15.30
2017,05,24,10,42,16.40
2017,05,24,10,43,18.00
2017,05,24,10,44,16.00
2017,05,24,10,45,10.70
2017,05,24,10,46,14.50
2017,05,24,10,47,16.40
2017,05,24,10,48,16.60
2017,05,24,10,49,17.60
2017,05,24,10,50,16.80
2017,05,24,10,51,21.00
2017,05,24,10,52,16.70
2017,05,24,10,53,14.50
2017,05,24,10,54,12.30
2017,05,24,10,55,12.20
2017,05,24,10,56,14.80
2017,05,24,10,57,11.30
2017,05,24,10,58,11.70
2017,05,24,10,59,18.80
2017,05,24,11,00,15.90
2017,05,24,11,01,9.40
2017,05,24,11,02,13.10
2017,05,24,11,03,9.80
2017,05,24,11,04,10.00
2017,05,24,11,05,15.70
2017,05,24,11,06,12.20
2017,05,24,11,07,9.90
2017,05,24,11,08,13.90
2017,05,24,11,09,12.10
2017,05,24,11,10,14.90
2017,05,24,11,11,20.80
2017,05,24,11,12,14.10
2017,05,24,11,13,11.30
2017,05,24,11,14,16.20
2017,05,24,11,15,15.60
2017,05,24,11,16,9.10
2017,05,24,11,17,13.50
2017,05,24,11,18,13.20
2017,05,24,11,19,12.10
2017,05,24,11,20,13.90
2017,05,24,11,21,18.20
2017,05,24,11,22,8.70
2017,05,24,11,23,20.50
2017,05,24,11,24,12.50
2017,05,24,11,25,11.70
2017,05,24,11,26,20.30
2017,05,24,11,27,10.70
2017,05,24,11,28,19.10
2017,05,24,11,29,18.50
2017,05,24,11,30,12.80
2017,05,24,11,31,9.40
2017,05,24,11,32,10.30
2017,05,24,11,33,14.20
2017,05,24,11,34,14.70
2017,05,24,11,35,14.10
2017,05,24,11,36,15.20
2017,05,24,11,37,17.10
2017,05,24,11,38,14.70
2017,05,24,11,39,20.10
2017,05,24,11,40,19.00
2017,05,24,11,41,17.00
2017,05,24,11,42,9.70
2017,05,24,11,43,15.00
2017,05,24,11,44,13.50
2017,05,24,11,45,18.50
2017,05,24,11,46,19.80
2017,05,24,11,47,19.00
2017,05,24,11,48,16.20
2017,05,24,11,49,24.30
2017,05,24,11,50,12.90
2017,05,24,11,51,16.80
2017,05,24,11,52,14.10
2017,05,24,11,53,14.50
2017,05,24,11,54,17.60
2017,05,24,11,55,22.00
2017,05,24,11,56,24.40
2017,05,24,11,57,15.90
2017,05,24,11,58,20.10
2017,05,24,11,59,14.00
2017,05,24,12,00,20.50
2017,05,24,12,01,19.00
2017,05,24,12,02,18.40
2017,05,24,12,03,17.90
2017,05,24,12,04,16.10
2017,05,24,12,05,15.20
2017,05,24,12,06,18.90
2017,05,24,12,07,14.80
2017,05,24,12,08,21.30
2017,05,24,12,09,17.90
2017,05,24,12,10,21.00
2017,05,24,12,11,18.50
2017,05,24,12,12,13.10
2017,05,24,12,13,14.90
2017,05,24,12,14,15.90
2017,05,24,12,15,17.80
2017,05,24,12,16,16.40
2017,05,24,12,17,22.20
2017,05,24,12,18,19.80
2017,05,24,12,19,15.70
2017,05,24,12,20,20.70
2017,05,24,12,21,19.00
2017,05,24,12,22,13.90
2017,05,24,12,23,14.20
2017,05,24,12,24,20.90
2017,05,24,12,25,16.70
2017,05,24,12,26,17.00
2017,05,24,12,27,14.10
2017,05,24,12,28,16.00
2017,05,24,12,29,20.90
2017,05,24,12,30,18.50
2017,05,24,12,31,18.90
2017,05,24,12,32,19.00
2017,05,24,12,33,15.70
2017,05,24,12,34,17.10
2017,05,24,12,35,19.00
2017,05,24,12,36,11.70
2017,05,24,12,37,17.60
2017,05,24,12,38,24.40
2017,05,24,12,39,20.00
2017,05,24,12,40,19.30
2017,05,24,12,41,11.90
2017,05,24,12,42,13.70
2017,05,24,12,43,17.40
2017,05,24,12,44,17.10
2017,05,24,12,45,18.40
2017,05,24,12,46,18.30
2017,05,24,12,47,13.50
2017,05,24,12,48,13.70
2017,05,24,12,49,12.00
2017,05,24,12,50,13.70
2017,05,24,12,51,18.20
2017,05,24,12,52,19.00
2017,05,24,12,53,18.90
2017,05,24,12,54,13.20
2017,05,24,12,55,16.60
2017,05,24,12,56,19.40
2017,05,24,12,57,23.10
2017,05,24,12,58,16.80
2017,05,24,12,59,19.60
2017,05,24,13,00,23.90
2017,05,24,13,01,19.50
2017,05,24,13,02,20.80
2017,05,24,13,03,26.30
2017,05,24,13,04,15.20
2017,05,24,13,05,21.20
2017,05,24,13,06,12.10
2017,05,24,13,07,16.80
2017,05,24,13,08,16.30
2017,05,24,13,09,12.60
2017,05,24,13,10,17.10
2017,05,24,13,11,19.90
2017,05,24,13,12,20.00
2017,05,24,13,13,15.00
2017,05,24,13,14,11.60
2017,05,24,13,15,17.90
2017,05,24,13,16,22.10
2017,05,24,13,17,18.70
2017,05,24,13,18,14.90
2017,05,24,13,19,16.90
2017,05,24,13,20,19.10
2017,05,24,13,21,17.80
2017,05,24,13,22,16.40
2017,05,24,13,23,18.30
2017,05,24,13,24,14.70
2017,05,24,13,25,16.00
2017,05,24,13,26,13.60
2017,05,24,13,27,22.70
2017,05,24,13,28,16.90
2017,05,24,13,29,12.90
2017,05,24,13,30,17.90
2017,05,24,13,31,20.40
2017,05,24,13,32,14.30
2017,05,24,13,33,15.80
2017,05,24,13,34,13.80
2017,05,24,13,35,13.50
2017,05,24,13,36,15.00
2017,05,24,13,37,15.90
2017,05,24,13,38,21.80
2017,05,24,13,39,17.40
2017,05,24,13,40,17.80
2017,05,24,13,41,19.90
2017,05,24,13,42,16.70
2017,05,24,13,43,13.30
2017,05,24,13,44,23.20
2017,05,24,13,45,15.90
2017,05,24,13,46,17.10
2017,05,24,13,47,11.50
2017,05,24,13,48,13.00
2017,05,24,13,49,7.90
2017,05,24,13,50,11.00
2017,05,24,13,51,14.80
2017,05,24,13,52,11.80
2017,05,24,13,53,11.90
2017,05,24,13,54,18.90
2017,05,24,13,55,9.70
2017,05,24,13,56,12.40
2017,05,24,13,57,10.50
2017,05,24,13,58,12.60
2017,05,24,13,59,10.50
2017,05,24,14,00,16.10
2017,05,24,14,01,15.50
2017,05,24,14,02,17.30
2017,05,24,14,03,16.20
2017,05,24,14,04,17.60
2017,05,24,14,05,16.70
2017,05,24,14,06,16.30
2017,05,24,14,07,17.00
2017,05,24,14,08,18.30
2017,05,24,14,09,23.10
2017,05,24,14,10,11.30
2017,05,24,14,11,11.30
2017,05,24,14,12,19.10
2017,05,24,14,13,14.70
2017,05,24,14,14,18.80
2017,05,24,14,15,17.80
2017,05,24,14,16,12.50
2017,05,24,14,17,19.90
2017,05,24,14,18,18.00
2017,05,24,14,19,16.20
2017,05,24,14,20,10.80
2017,05,24,14,21,17.00
2017,05,24,14,22,17.00
2017,05,24,14,23,12.60
2017,05,24,14,24,14.00
2017,05,24,14,25,8.20
2017,05,24,14,26,13.80
2017,05,24,14,27,12.20
2017,05,24,14,28,13.30
2017,05,24,14,29,11.70
2017,05,24,14,30,11.70
2017,05,24,14,31,12.20
2017,05,24,14,32,10.90
2017,05,24,14,33,16.10
2017,05,24,14,34,22.10
2017,05,24,14,35,18.20
2017,05,24,14,36,15.60
2017,05,24,14,37,12.00
2017,05,24,14,38,17.70
2017,05,24,14,39,16.00
2017,05,24,14,40,16.20
2017,05,24,14,41,17.60
2017,05,24,14,42,23.60
2017,05,24,14,43,18.10
2017,05,24,14,44,20.00
2017,05,24,14,45,14.90
2017,05,24,14,46,15.40
2017,05,24,14,47,21.80
2017,05,24,14,48,19.50
2017,05,24,14,49,12.30
2017,05,24,14,50,15.70
2017,05,24,14,51,16.40
2017,05,24,14,52,17.20
2017,05,24,14,53,9.90
2017,05,24,14,54,10.70
2017,05,24,14,55,13.10
2017,05,24,14,56,13.80
2017,05,24,14,57,16.60
2017,05,24,14,58,14.50
2017,05,24,14,59,12.50
2017,05,24,15,00,11.50
2017,05,24,15,01,13.50
2017,05,24,15,02,18.10
2017,05,24,15,03,12.70
2017,05,24,15,04,7.90
2017,05,24,15,05,11.40
2017,05,24,15,06,18.10
2017,05,24,15,07,9.00
2017,05,24,15,08,15.00
2017,05,24,15,09,18.20
2017,05,24,15,10,20.50
2017,05,24,15,11,13.90
2017,05,24,15,12,19.00
2017,05,24,15,13,14.00
2017,05,24,15,14,8.50
2017,05,24,15,15,7.70
2017,05,24,15,16,10.80
2017,05,24,15,17,13.80
2017,05,24,15,18,14.50
2017,05,24,15,19,15.80
2017,05,24,15,20,15.60
2017,05,24,15,21,17.50
2017,05,24,15,22,13.90
2017,05,24,15,23,12.70
2017,05,24,15,24,10.70
2017,05,24,15,25,9.10
2017,05,24,15,26,10.90
2017,05,24,15,27,16.40
2017,05,24,15,28,14.90
2017,05,24,15,29,12.90
2017,05,24,15,30,11.60
2017,05,24,15,31,7.60
2017,05,24,15,32,15.00
2017,05,24,15,33,10.20
2017,05,24,15,34,14.30
2017,05,24,15,35,15.30
2017,05,24,15,36,12.80
2017,05,24,15,37,10.70
2017,05,24,15,38,14.70
2017,05,24,15,39,19.30
2017,05,24,15,40,20.40
2017,05,24,15,41,19.60
2017,05,24,15,42,17.50
2017,05,24,15,43,13.90
2017,05,24,15,44,13.30
2017,05,24,15,45,17.40
2017,05,24,15,46,19.60
2017,05,24,15,47,13.40
2017,05,24,15,48,14.10
2017,05,24,15,49,11.40
2017,05,24,15,50,14.40
2017,05,24,15,51,18.70
2017,05,24,15,52,12.80
2017,05,24,15,53,14.00
2017,05,24,15,54,12.20
2017,05,24,15,55,12.50
2017,05,24,15,56,15.80
2017,05,24,15,57,18.60
2017,05,24,15,58,13.40
2017,05,24,15,59,14.40
2017,05,24,16,00,18.70
2017,05,24,16,01,13.60
2017,05,24,16,02,11.50
2017,05,24,16,03,12.00
2017,05,24,16,04,8.80
2017,05,24,16,05,17.80
2017,05,24,16,06,11.20
2017,05,24,16,07,17.50
2017,05,24,16,08,15.00
2017,05,24,16,09,14.70
2017,05,24,16,10,15.00
2017,05,24,16,11,13.90
2017,05,24,16,12,21.10
2017,05,24,16,13,19.20
2017,05,24,16,14,20.90
2017,05,24,16,15,16.30
2017,05,24,16,16,25.20
2017,05,24,16,17,21.30
2017,05,24,16,18,19.50
2017,05,24,16,19,14.90
2017,05,24,16,20,18.00
2017,05,24,16,21,19.70
2017,05,24,16,22,12.00
2017,05,24,16,23,16.90
2017,05,24,16,24,14.40
2017,05,24,16,25,16.70
2017,05,24,16,26,14.50
2017,05,24,16,27,15.90
2017,05,24,16,28,17.00
2017,05,24,16,29,10.20
2017,05,24,16,30,14.00
2017,05,24,16,31,18.50
2017,05,24,16,32,23.80
2017,05,24,16,33,14.50
2017,05,24,16,34,11.00
2017,05,24,16,35,17.30
2017,05,24,16,36,19.00
2017,05,24,16,37,21.30
2017,05,24,16,38,18.10
2017,05,24,16,39,21.20
2017,05,24,16,40,20.90
2017,05,24,16,41,20.50
2017,05,24,16,42,19.40
2017,05,24,16,43,20.10
2017,05,24,16,44,22.50
2017,05,24,16,45,16.70
2017,05,24,16,46,19.40
2017,05,24,16,47,19.00
2017,05,24,16,48,14.40
2017,05,24,16,49,20.20
2017,05,24,16,50,18.40
2017,05,24,16,51,26.00
2017,05,24,16,52,17.50
2017,05,24,16,53,19.90
2017,05,24,16,54,17.20
2017,05,24,16,55,19.10
2017,05,24,16,56,22.80
2017,05,24,16,57,19.40
2017,05,24,16,58,14.00
2017,05,24,16,59,11.20
2017,05,24,17,00,17.40
2017,05,24,17,01,14.60
2017,05,24,17,02,10.10
2017,05,24,17,03,13.90
2017,05,24,17,04,11.20
2017,05,24,17,05,11.30
2017,05,24,17,06,13.40
2017,05,24,17,07,15.20
2017,05,24,17,08,14.20
2017,05,24,17,09,18.20
2017,05,24,17,10,20.40
2017,05,24,17,11,15.70
2017,05,24,17,12,13.40
2017,05,24,17,13,17.10
2017,05,24,17,14,15.50
2017,05,24,17,15,25.20
2017,05,24,17,16,26.00
2017,05,24,17,17,21.20
2017,05,24,17,18,16.80
2017,05,24,17,19,22.30
2017,05,24,17,20,16.10
2017,05,24,17,21,17.00
2017,05,24,17,22,19.60
2017,05,24,17,23,15.50
2017,05,24,17,24,22.00
2017,05,24,17,25,13.90
2017,05,24,17,26,13.30
2017,05,24,17,27,16.80
2017,05,24,17,28,16.40
2017,05,24,17,29,18.40
2017,05,24,17,30,19.90
2017,05,24,17,31,16.60
2017,05,24,17,32,22.60
2017,05,24,17,33,24.10
2017,05,24,17,34,16.40
2017,05,24,17,35,20.10
2017,05,24,17,36,19.90
2017,05,24,17,37,21.10
2017,05,24,17,38,18.50
2017,05,24,17,39,15.30
2017,05,24,17,40,13.90
2017,05,24,17,41,19.50
2017,05,24,17,42,22.10
2017,05,24,17,43,14.30
2017,05,24,17,44,15.30
2017,05,24,17,45,13.50